Flag for Germany Weather past 2 weeks in Aachen, North Rhine-Westphalia, Germany

Now
51 °F

Rain showers. Overcast.


Feels Like: 49 °F
Forecast: 49 / 61 °F
Wind: 6 mph from Southwest

Location: Maastricht Airport Zuid Limburg

Current Time: Oct 25, 2014 at 2:49:32 AM

Latest Report: Oct 25, 2014 at 1:00 AM


Visibility: 4 mi

Pressure: 30.05 "Hg

Humidity: 96%

Dew point: 49 °F

Location of AachenLocation

Historic Weather in Aachen — Graph

°F

Aachen temperature yesterday

Maximum temperature yesterday: 55 °F (at 5:00 PM)
Minimum temperature yesterday: 49 °F (at 6:00 AM)
Average temperature yesterday: 52 °F

Past Weeks' High & Low Weather Summary

 TemperatureHumidityPressure
High73 °F (Oct 18, 4:00 PM)99% (Oct 11, 5:00 AM)30.25 "Hg (Oct 11, 5:00 AM)
Low41 °F (Oct 22, 3:00 AM)59% (Oct 10, 2:00 PM)29.54 "Hg (Oct 21, 3:00 PM)
Average56 °F83%29.92 "Hg
* Reported Oct 10 1:00 AM — Oct 25 1:00 AM, Aachen, Weather by CustomWeather, © 2014

Note: Actual official high and low records may vary slightly from our data, if they occured in-between our weather recording intervals... More about our weather records

Advertising

Aachen weather history for previous 24 hours

 ConditionsComfort  
Time TempWeatherWind HumidityBarometerVisibility
1:00 AM
Oct 25
51 °FRain showers. Overcast.6 mph96%30.05 "Hg4 mi
12:00 AM52 °FOvercast.6 mph85%30.05 "Hg16 mi
11:00 PM
Oct 24
53 °FOvercast.6 mph83%30.06 "Hg14 mi
10:00 PM52 °FOvercast.5 mph83%30.06 "Hg17 mi
9:00 PM52 °FOvercast.3 mph83%30.06 "Hg22 mi
8:00 PM53 °FOvercast.5 mph80%30.06 "Hg25 mi
7:00 PM53 °FOvercast.5 mph80%30.06 "Hg22 mi
6:00 PM54 °FOvercast.6 mph79%30.06 "Hg22 mi
5:00 PM55 °FOvercast.5 mph78%30.07 "Hg18 mi
4:00 PM55 °FOvercast.3 mph77%30.08 "Hg19 mi
3:00 PM55 °FOvercast.5 mph75%30.09 "Hg13 mi
2:00 PM55 °FOvercast.6 mph72%30.11 "Hg17 mi
1:00 PM54 °FOvercast.6 mph73%30.13 "Hg13 mi
12:00 PM53 °FOvercast.6 mph76%30.14 "Hg14 mi
11:00 AM52 °FOvercast.6 mph77%30.15 "Hg14 mi
10:00 AM51 °FDrizzle. Overcast.5 mph79%30.15 "Hg12 mi
9:00 AM50 °FOvercast.5 mph79%30.15 "Hg15 mi
8:00 AM49 °FClear.5 mph81%30.14 "Hg14 mi
7:00 AM49 °FClear.5 mph87%30.14 "Hg12 mi
6:00 AM49 °FClear.3 mph90%30.15 "Hg12 mi
5:00 AM49 °FPassing clouds.3 mph91%30.16 "Hg16 mi
4:00 AM50 °FClear.5 mph90%30.16 "Hg22 mi
3:00 AM51 °FOvercast.3 mph88%30.17 "Hg19 mi
2:00 AM51 °FOvercast.5 mph88%30.19 "Hg14 mi
Weather by CustomWeather, © 2014

See weather overviewHow to use our weather pages